Location: Ferchesar
(52.6477°N, 12.4298°E)
Time: 16:39:55
(UTC+01:00)

Vanguard 3 - Pass Details

Date: 13 December 2021
Orbit: 508 x 3260 km, 33.3° (Epoch: 22 January)

Event Time Altitude Azimuth Distance (km) Brightness Sun altitude
Rises 00:40:30 0° 213° (SSW) 5,840 - -59.7°
Reaches altitude 10° 00:44:41 10° 203° (SSW) 5,196 - -59.5°
Maximum altitude 00:57:38 30° 150° (SSE) 4,521 - -58.8°
Exits shadow 01:05:23 23° 119° (ESE) 5,139 11.0 -58.3°
Drops below altitude 10° 01:12:53 10° 101° (E) 6,178 11.7 -57.7°
Sets 01:18:27 0° 92° (E) 7,081 12.2 -57.3°
